N6CTG Weather Reports


Display with metric or nautical units.
time (UTC)temp
F
wind
direction
speed
MPH
gust
MPH
rain 1hr
in
rain 24hr
in
rain mn
in
humidity
%
barometer
mb
20260901221804 87 240 6.0 11.0 0.00 0.00 0.00 30 1010.8
20260901220925 87 235 6.0 12.0 0.00 0.00 0.00 32 1010.8
20260901220004 87 241 5.0 11.0 0.00 0.00 0.00 33 1010.9
20260901215404 88 246 5.0 10.0 0.00 0.00 0.00 34 1011.0
20260901214525 88 243 6.0 11.0 0.00 0.00 0.00 34 1011.0
20260901213604 88 240 5.0 10.0 0.00 0.00 0.00 34 1011.0
20260901212704 88 244 6.0 12.0 0.00 0.00 0.00 35 1011.1
20260901211804 88 243 5.0 10.0 0.00 0.00 0.00 34 1011.2
20260901210904 89 239 4.0 11.0 0.00 0.00 0.00 34 1011.2
20260901210004 88 244 5.0 11.0 0.00 0.00 0.00 33 1011.2
20260901205404 88 242 4.0 10.0 0.00 0.00 0.00 33 1011.3
20260901204504 88 238 4.0 10.0 0.00 0.00 0.00 34 1011.3
20260901203604 88 237 3.0 10.0 0.00 0.00 0.00 34 1011.3
20260901202704 88 232 4.0 9.0 0.00 0.00 0.00 34 1011.3
20260901201804 88 248 3.0 7.0 0.00 0.00 0.00 35 1011.5
20260901200904 87 243 3.0 11.0 0.00 0.00 0.00 36 1011.6
20260901200004 87 249 5.0 12.0 0.00 0.00 0.00 37 1011.8
20260901195404 87 238 4.0 10.0 0.00 0.00 0.00 39 1011.8
20260901194504 87 241 4.0 8.0 0.00 0.00 0.00 39 1011.8
20260901193604 87 284 1.0 6.0 0.00 0.00 0.00 40 1011.8
20260901192704 86 259 2.0 9.0 0.00 0.00 0.00 41 1012.0
20260901191804 86 248 4.0 9.0 0.00 0.00 0.00 40 1012.0
20260901190904 87 241 1.0 8.0 0.00 0.00 0.00 40 1012.1
20260901190004 86 246 2.0 7.0 0.00 0.00 0.00 41 1012.2
20260901185404 86 217 2.0 7.0 0.00 0.00 0.00 42 1012.2
20260901184504 84 222 3.0 8.0 0.00 0.00 0.00 38 1012.3
20260901183604 84 224 3.0 7.0 0.00 0.00 0.00 39 1012.4
20260901182704 84 248 1.0 7.0 0.00 0.00 0.00 39 1012.5
20260901181804 84 220 2.0 8.0 0.00 0.00 0.00 41 1012.4
20260901180925 83 263 2.0 6.0 0.00 0.00 0.00 41 1012.5
20260901180025 83 260 1.0 4.0 0.00 0.00 0.00 41 1012.5
20260901175425 82 268 2.0 4.0 0.00 0.00 0.00 40 1012.5
20260901174525 82 261 1.0 3.0 0.00 0.00 0.00 40 1012.6
20260901173604 81 204 0.0 2.0 0.00 0.00 0.00 41 1012.5
20260901172704 80 249 1.0 3.0 0.00 0.00 0.00 44 1012.6
20260901171825 78 230 2.0 5.0 0.00 0.00 0.00 47 1012.6
20260901170904 78 232 2.0 6.0 0.00 0.00 0.00 49 1012.6
20260901170004 78 240 1.0 5.0 0.00 0.00 0.00 49 1012.5
20260901165404 77 237 2.0 5.0 0.00 0.00 0.00 48 1012.6
20260901164504 77 232 2.0 4.0 0.00 0.00 0.00 49 1012.5
20260901163625 76 232 2.0 4.0 0.00 0.00 0.00 51 1012.4
20260901162704 75 222 1.0 4.0 0.00 0.00 0.00 51 1012.3
20260901161804 74 222 1.0 4.0 0.00 0.00 0.00 54 1012.3
20260901160904 73 231 2.0 3.0 0.00 0.00 0.00 57 1012.2
20260901160004 72 231 2.0 4.0 0.00 0.00 0.00 57 1012.2
20260901155404 72 224 1.0 4.0 0.00 0.00 0.00 57 1012.2
20260901154525 72 244 0.0 3.0 0.00 0.00 0.00 57 1012.2
20260901153604 71 52 0.0 1.0 0.00 0.00 0.00 58 1012.1
20260901152725 71 0 0.0 0.0 0.00 0.00 0.00 59 1012.1
20260901151804 70 0 0.0 0.0 0.00 0.00 0.00 61 1012.0
20260901150904 69 0 0.0 0.0 0.00 0.00 0.00 63 1012.0
20260901150025 68 0 0.0 0.0 0.00 0.00 0.00 65 1012.0
20260901145404 67 0 0.0 0.0 0.00 0.00 0.00 65 1012.0
20260901144504 66 0 0.0 0.0 0.00 0.00 0.00 69 1012.0
20260901143604 64 0 0.0 0.0 0.00 0.00 0.00 71 1012.0
20260901142704 63 0 0.0 0.0 0.00 0.00 0.00 73 1012.0
20260901141825 63 0 0.0 0.0 0.00 0.00 0.00 74 1012.0
20260901140925 56 0 0.0 0.0 0.00 0.00 0.00 80 1012.0
20260901140004 56 0 0.0 0.0 0.00 0.00 0.00 80 1011.9
20260901135425 56 0 0.0 0.0 0.00 0.00 0.00 80 1011.8
20260901134504 56 0 0.0 0.0 0.00 0.00 0.00 80 1011.8
20260901133625 56 0 0.0 0.0 0.00 0.00 0.00 80 1011.6
20260901132725 56 0 0.0 0.0 0.00 0.00 0.00 80 1011.5
20260901131804 56 0 0.0 0.0 0.00 0.00 0.00 80 1011.3
20260901130925 56 0 0.0 0.0 0.00 0.00 0.00 80 1011.3
20260901130004 56 0 0.0 0.0 0.00 0.00 0.00 80 1011.3
20260901125404 56 0 0.0 0.0 0.00 0.00 0.00 80 1011.3
20260901124504 56 0 0.0 0.0 0.00 0.00 0.00 80 1011.2
20260901123604 56 0 0.0 0.0 0.00 0.00 0.00 80 1011.2
20260901122704 56 0 0.0 0.0 0.00 0.00 0.00 80 1011.2
20260901121825 56 0 0.0 0.0 0.00 0.00 0.00 80 1011.1
20260901120904 56 0 0.0 0.0 0.00 0.00 0.00 80 1011.2
20260901120004 56 0 0.0 0.0 0.00 0.00 0.00 80 1011.3
20260901115425 56 0 0.0 0.0 0.00 0.00 0.00 80 1011.2
20260901114504 56 0 0.0 0.0 0.00 0.00 0.00 80 1011.2
20260901113604 56 0 0.0 0.0 0.00 0.00 0.00 80 1011.2
20260901112704 56 0 0.0 0.0 0.00 0.00 0.00 80 1011.1
20260901111804 56 0 0.0 0.0 0.00 0.00 0.00 80 1011.1
20260901110904 56 0 0.0 0.0 0.00 0.00 0.00 80 1011.1
20260901110004 56 0 0.0 0.0 0.00 0.00 0.00 80 1011.1
20260901105404 57 0 0.0 0.0 0.00 0.00 0.00 81 1011.1
20260901104504 58 0 0.0 0.0 0.00 0.00 0.00 81 1011.1
20260901103604 58 0 0.0 0.0 0.00 0.00 0.00 81 1011.1
20260901102704 58 0 0.0 0.0 0.00 0.00 0.00 81 1011.1
20260901101804 58 0 0.0 0.0 0.00 0.00 0.00 81 1011.2
20260901100904 58 0 0.0 0.0 0.00 0.00 0.00 81 1011.1
20260901100004 59 0 0.0 0.0 0.00 0.00 0.00 81 1011.3
20260901095404 59 0 0.0 0.0 0.00 0.00 0.00 81 1011.2
20260901094525 59 0 0.0 0.0 0.00 0.00 0.00 81 1011.2
20260901093604 59 0 0.0 0.0 0.00 0.00 0.00 81 1011.2
20260901092704 60 0 0.0 0.0 0.00 0.00 0.00 80 1011.2
20260901091804 60 0 0.0 0.0 0.00 0.00 0.00 81 1011.2
20260901090904 60 0 0.0 0.0 0.00 0.00 0.00 81 1011.2
20260901090004 60 0 0.0 0.0 0.00 0.00 0.00 81 1011.2
20260901085425 61 0 0.0 0.0 0.00 0.00 0.00 81 1011.1
20260901084504 61 0 0.0 0.0 0.00 0.00 0.00 80 1011.1
20260901083604 61 0 0.0 0.0 0.00 0.00 0.00 80 1011.2
20260901082704 62 0 0.0 0.0 0.00 0.00 0.00 80 1011.3
20260901081804 62 0 0.0 0.0 0.00 0.00 0.00 79 1011.4
20260901080904 62 0 0.0 0.0 0.00 0.00 0.00 79 1011.3
20260901080025 62 0 0.0 0.0 0.00 0.00 0.00 78 1011.3
20260901075404 62 0 0.0 0.0 0.00 0.00 0.00 78 1011.3
20260901074504 62 0 0.0 0.0 0.00 0.00 0.00 78 1011.3
20260901073625 62 0 0.0 0.0 0.00 0.00 0.00 78 1011.2
20260901072704 63 0 0.0 0.0 0.00 0.00 0.00 78 1011.2
20260901071804 63 0 0.0 0.0 0.00 0.00 0.00 77 1011.3
20260901070925 63 0 0.0 0.0 0.00 0.00 0.00 76 1011.2
20260901070004 64 0 0.0 0.0 0.00 0.00 0.00 75 1011.2
20260901065425 64 0 0.0 0.0 0.00 0.00 0.00 75 1011.4
20260901064504 64 0 0.0 0.0 0.00 0.00 0.00 74 1011.3
20260901063604 64 0 0.0 0.0 0.00 0.00 0.00 73 1011.2
20260901062704 65 0 0.0 0.0 0.00 0.00 0.00 73 1011.2
20260901061804 65 0 0.0 0.0 0.00 0.00 0.00 73 1011.2
20260901060925 65 0 0.0 0.0 0.00 0.00 0.00 72 1011.2
20260901060004 66 0 0.0 0.0 0.00 0.00 0.00 72 1011.1
20260901055425 66 0 0.0 0.0 0.00 0.00 0.00 72 1011.1
20260901054504 66 0 0.0 0.0 0.00 0.00 0.00 71 1011.0
20260901053604 66 0 0.0 0.0 0.00 0.00 0.00 71 1011.1
20260901052704 66 0 0.0 0.0 0.00 0.00 0.00 71 1011.1
20260901051804 66 0 0.0 0.0 0.00 0.00 0.00 72 1011.0
20260901050904 67 0 0.0 0.0 0.00 0.00 0.00 74 1010.9
20260901050004 67 0 0.0 0.0 0.00 0.00 0.00 74 1010.8
20260901045404 68 0 0.0 0.0 0.00 0.00 0.00 74 1010.8
20260901044506 68 0 0.0 0.0 0.00 0.00 0.00 74 1010.7
20260901043604 68 0 0.0 0.0 0.00 0.00 0.00 74 1010.9
20260901042704 69 0 0.0 0.0 0.00 0.00 0.00 73 1010.8
20260901041804 69 0 0.0 0.0 0.00 0.00 0.00 73 1011.0
20260901040925 69 0 0.0 0.0 0.00 0.00 0.00 72 1010.9
20260901040025 70 0 0.0 0.0 0.00 0.00 0.00 71 1010.8
20260901035404 70 0 0.0 0.0 0.00 0.00 0.00 71 1010.7
20260901034504 71 0 0.0 0.0 0.00 0.00 0.00 70 1010.6
20260901033604 71 0 0.0 0.0 0.00 0.00 0.00 69 1010.5
20260901032704 72 0 0.0 0.0 0.00 0.00 0.00 68 1010.3
20260901031825 72 237 0.0 2.0 0.00 0.00 0.00 68 1010.2
20260901030904 72 0 0.0 0.0 0.00 0.00 0.00 67 1010.1
20260901030004 73 0 0.0 0.0 0.00 0.00 0.00 64 1010.0
20260901025425 73 248 0.0 1.0 0.00 0.00 0.00 63 1010.0
20260901024525 74 243 0.0 1.0 0.00 0.00 0.00 59 1009.9
20260901023604 74 0 0.0 0.0 0.00 0.00 0.00 57 1009.7
20260901022704 75 252 1.0 3.0 0.00 0.00 0.00 56 1009.6
20260901021825 75 243 2.0 5.0 0.00 0.00 0.00 55 1009.4
20260901020904 76 242 2.0 4.0 0.00 0.00 0.00 52 1009.3
20260901020004 77 238 2.0 4.0 0.00 0.00 0.00 52 1009.2
20260901015425 78 239 3.0 4.0 0.00 0.00 0.00 49 1009.1
20260901014504 79 244 2.0 5.0 0.00 0.00 0.00 45 1009.1
20260901013625 80 253 2.0 5.0 0.00 0.00 0.00 44 1009.0
20260901012704 80 255 3.0 7.0 0.00 0.00 0.00 39 1009.2
20260901011804 80 253 4.0 9.0 0.00 0.00 0.00 37 1009.2
20260901010904 81 244 4.0 8.0 0.00 0.00 0.00 42 1009.2
20260901010004 82 240 4.0 8.0 0.00 0.00 0.00 42 1009.2
20260901005404 82 240 4.0 8.0 0.00 0.00 0.00 38 1009.1
20260901004504 82 253 3.0 8.0 0.00 0.00 0.00 44 1009.1
20260901003625 82 248 4.0 9.0 0.00 0.00 0.00 46 1009.1
20260901002704 82 251 5.0 9.0 0.00 0.00 0.00 47 1009.2
20260901001804 83 243 5.0 9.0 0.00 0.00 0.00 46 1009.2
20260901000925 84 252 4.0 10.0 0.00 0.00 0.00 44 1009.3
20260901000004 84 248 5.0 12.0 0.00 0.00 0.00 43 1009.2
20260831235404 84 244 5.0 10.0 0.00 0.00 0.00 42 1009.2
20260831234504 85 249 4.0 9.0 0.00 0.00 0.00 41 1009.2
20260831233604 85 246 5.0 11.0 0.00 0.00 0.00 41 1009.1
20260831232725 86 249 3.0 7.0 0.00 0.00 0.00 41 1009.0
20260831231804 86 257 4.0 10.0 0.00 0.00 0.00 42 1009.1
20260831230904 86 252 5.0 11.0 0.00 0.00 0.00 41 1009.1
20260831230004 87 260 4.0 8.0 0.00 0.00 0.00 41 1009.1
20260831225404 87 258 4.0 8.0 0.00 0.00 0.00 41 1009.2
20260831224504 87 245 6.0 11.0 0.00 0.00 0.00 41 1009.2
20260831223604 87 257 5.0 11.0 0.00 0.00 0.00 41 1009.3
20260831222725 87 255 6.0 12.0 0.00 0.00 0.00 41 1009.3